Location: Del Amo
(33.8464°N, 118.2104°W)
Time: 07:49:06
(UTC+00:00)

Vanguard 3 - Pass Details

Date: 15 September 2024
Orbit: 507 x 3223 km, 33.3° (Epoch: 09 October)

Event Time Altitude Azimuth Distance (km) Brightness Sun altitude
Rises 11:57:20 0° 207° (SSW) 5,969 - -21.0°
Exits shadow 11:58:31 - 205° (SSW) 5,758 11.1 -20.8°
Reaches altitude 10° 12:01:22 10° 199° (SSW) 5,287 10.9 -20.2°
Maximum altitude 12:16:06 37° 139° (SE) 4,199 10.9 -17.3°
Drops below altitude 10° 12:32:48 10° 81° (E) 6,024 13.0 -13.9°
Sets 12:37:42 0° 75° (ENE) 6,862 14.0 -12.9°
